Preview of NWS' New Version of Forecast
This preview is not operational and should not be used for support decisions.

Regional Weather Roundup (RWR)

Issued by National Weather Service (NWS)

                            
000
ASCA42 TJSJ 170710
RWRPR 
PUERTO RICO/U.S. VIRGIN ISLANDS HOURLY WEATHER ROUNDUP
NATIONAL WEATHER SERVICE SAN JUAN PR
300 AM AST SUN FEB 17 2019

PRZ001>002-007>008-010-170800-
PUERTO RICO
  
CITY           SKY/WX    TMP DP  RH WIND       PRES   REMARKS
SAN JUAN LMM   PTCLDY    77  72  83 SE5       30.01F                  
$$

VIZ001>002-170800-
U.S. VIRGIN ISLANDS
  
CITY           SKY/WX    TMP DP  RH WIND       PRES   REMARKS
CHARLOTTE AMA  CLEAR     75  72  88 E5        30.02F                  
CHRISTIANSTED  CLEAR     73  72  94 N5        30.03F                  
$$

HOURLY WEATHER ROUNDUP FOR THE NEWS MEDIA
  
CITY           SKY/WX    TMP DP  RH WIND       PRES   REMARKS
ORLANDO        FAIR      64  63  96 CALM      29.93R                  
NEW YORK       FAIR      29  16  58 N14G21    30.07S WCI  18          
NEWARK         FAIR      29  14  53 NW13      30.07F WCI  19          
CHICAGO        CLOUDY    24  18  77 E14       29.99R WCI  12          
HARTFORD       FAIR      28  19  69 VRB5      30.00R WCI  23          
BOSTON         FAIR      28  10  46 NW10      30.03R WCI  19          
DALLAS         DRIZZLE   44  42  93 CALM      29.69S FOG              
PHILADELPHIA   FAIR      30  15  53 N14       30.07S WCI  19          
LOS ANGELES    FAIR      53  40  61 W17       30.09S                  
WASHINGTON DC  FAIR      28  19  69 NW5       30.08R WCI  23